Total_Precipitation_Accumulation
0.81 0.77 0.73 0.74 0.69 0.61 0.58 0.58 0.50 0.44 0.45 0.47 0.46 0.42 0.41 0.37 0.33 0.32 0.29 0.30 0.28 0.29 0.45 0.64 0.81 1.04 1.25 1.42 1.63 1.68 1.43 1.26 1.12 1.01 1.00 1.11 1.20 1.23 1.26 1.35 1.47 1.45 1.31
0.89 0.81 0.76 0.73 0.71 0.66 0.62 0.57 0.51 0.44 0.38 0.35 0.32 0.31 0.36 0.37 0.37 0.37 0.34 0.33 0.31 0.29 0.36 0.53 0.72 0.94 1.21 1.47 1.70 1.95 1.78 1.59 1.41 1.22 1.06 1.07 1.15 1.22 1.24 1.32 1.43 1.59 1.60
1.02 0.93 0.86 0.79 0.71 0.65 0.63 0.62 0.56 0.50 0.44 0.38 0.33 0.30 0.29 0.29 0.32 0.36 0.35 0.35 0.36 0.34 0.33 0.43 0.61 0.80 1.06 1.38 1.68 1.95 2.13 1.96 1.77 1.59 1.34 1.15 1.16 1.26 1.33 1.41 1.49 1.62 1.72
1.12 1.06 0.99 0.96 0.90 0.80 0.69 0.63 0.57 0.52 0.47 0.42 0.38 0.35 0.33 0.30 0.27 0.28 0.29 0.32 0.36 0.37 0.36 0.41 0.51 0.72 0.94 1.15 1.46 1.78 2.17 2.21 2.16 2.01 1.86 1.56 1.34 1.35 1.45 1.53 1.65 1.71 1.71
1.26 1.17 1.11 1.07 1.11 1.06 0.89 0.74 0.63 0.54 0.50 0.45 0.42 0.40 0.38 0.35 0.33 0.31 0.28 0.26 0.27 0.32 0.37 0.39 0.46 0.59 0.75 0.96 1.24 1.56 1.92 2.26 2.38 2.37 2.31 2.12 1.77 1.51 1.53 1.63 1.67 1.77 1.85
1.42 1.34 1.22 1.11 1.13 1.17 1.12 0.96 0.76 0.64 0.56 0.52 0.50 0.48 0.46 0.43 0.38 0.33 0.31 0.28 0.26 0.28 0.34 0.38 0.41 0.48 0.60 0.75 0.98 1.31 1.69 2.10 2.48 2.57 2.55 2.55 2.40 2.02 1.80 1.79 1.79 1.90 2.04
1.66 1.57 1.41 1.30 1.21 1.16 1.11 1.05 0.97 0.85 0.72 0.63 0.63 0.62 0.55 0.49 0.48 0.41 0.33 0.30 0.28 0.27 0.30 0.38 0.43 0.45 0.53 0.66 0.79 0.96 1.31 1.76 2.30 2.82 2.84 2.76 2.85 2.67 2.32 2.14 2.10 2.17 2.35
1.77 1.87 1.73 1.53 1.39 1.29 1.22 1.14 1.06 1.04 0.94 0.79 0.72 0.75 0.74 0.69 0.57 0.46 0.40 0.33 0.30 0.30 0.31 0.33 0.41 0.46 0.49 0.56 0.62 0.79 0.99 1.34 1.83 2.57 3.26 3.29 3.32 3.42 3.03 2.62 2.46 2.49 2.59
1.52 1.61 1.71 1.55 1.49 1.43 1.34 1.25 1.16 1.13 1.10 0.96 0.80 0.87 0.96 0.83 0.60 0.50 0.45 0.39 0.34 0.32 0.31 0.32 0.36 0.43 0.48 0.55 0.58 0.63 0.77 1.02 1.39 2.00 2.87 3.62 3.80 3.97 3.89 3.28 2.95 2.87 2.87
1.45 1.45 1.54 1.57 1.39 1.31 1.26 1.21 1.18 1.11 1.12 1.10 0.95 0.83 0.79 0.78 0.81 0.67 0.49 0.44 0.44 0.40 0.35 0.32 0.33 0.39 0.47 0.56 0.65 0.66 0.69 0.82 1.10 1.54 2.25 3.18 3.97 4.34 4.58 4.21 3.58 3.33 3.25
1.47 1.50 1.48 1.52 1.53 1.34 1.17 1.11 1.13 1.15 1.12 1.07 0.99 0.88 0.78 0.66 0.65 0.77 0.63 0.53 0.57 0.54 0.49 0.44 0.41 0.43 0.48 0.58 0.64 0.72 0.81 0.86 1.15 1.38 1.76 2.41 3.45 4.32 4.92 5.02 4.44 3.81 3.49
1.44 1.49 1.51 1.46 1.44 1.45 1.35 1.18 1.10 1.12 1.09 1.06 1.04 0.98 0.92 0.88 0.74 0.74 0.70 0.55 0.54 0.53 0.56 0.60 0.58 0.58 0.61 0.66 0.77 0.93 0.92 1.00 1.22 1.32 1.39 1.69 2.41 3.41 4.33 4.91 4.74 4.09 3.70
1.36 1.39 1.45 1.45 1.40 1.36 1.36 1.29 1.19 1.14 1.10 1.08 1.05 1.00 0.95 0.91 0.85 0.88 0.92 0.76 0.61 0.52 0.53 0.58 0.62 0.64 0.70 0.75 0.89 1.01 0.99 1.08 1.15 1.24 1.24 1.34 1.69 2.40 3.30 4.25 4.72 4.39 3.86
1.26 1.24 1.27 1.28 1.25 1.20 1.20 1.22 1.19 1.12 1.11 1.13 1.10 1.07 1.02 0.91 0.90 0.99 1.09 1.15 1.02 0.70 0.57 0.57 0.59 0.65 0.73 0.82 0.97 1.10 1.07 1.11 1.14 1.21 1.22 1.18 1.30 1.59 2.28 3.32 4.58 5.03 4.40
1.20 1.23 1.23 1.19 1.10 1.06 1.04 1.04 1.06 1.04 1.06 1.08 1.09 1.10 1.09 0.99 0.97 0.98 1.05 1.25 1.50 1.28 0.77 0.56 0.58 0.64 0.72 0.81 1.01 0.94 0.89 0.94 0.97 1.01 1.10 1.13 1.15 1.27 1.58 2.18 3.14 4.51 5.17
1.12 1.15 1.19 1.18 1.12 1.03 1.01 1.01 0.96 0.91 0.96 0.99 1.02 1.07 1.08 1.02 0.98 0.96 1.04 1.09 1.22 1.39 1.11 0.63 0.57 0.61 0.74 0.78 0.87 0.82 0.85 0.99 0.99 0.99 1.04 1.08 1.13 1.18 1.33 1.61 2.12 2.96 4.18
1.02 1.02 1.05 1.09 1.09 1.06 1.02 1.06 1.01 0.93 0.94 0.94 0.97 1.00 1.00 1.00 1.04 0.99 1.01 1.04 1.05 1.12 1.11 0.67 0.53 0.57 0.74 0.82 0.79 0.75 0.81 0.86 0.89 0.99 1.00 1.01 1.07 1.15 1.31 1.48 1.75 2.19 2.89
1.01 1.02 1.00 1.04 1.05 1.07 1.07 1.07 1.02 0.95 0.95 0.94 0.94 0.92 0.92 0.93 0.99 0.95 0.95 0.95 0.92 0.89 0.94 0.77 0.54 0.53 0.62 0.71 0.82 0.88 0.85 0.84 0.83 0.92 0.95 1.03 1.13 1.16 1.24 1.39 1.61 1.91 2.29
0.99 1.00 1.02 1.03 1.08 1.12 1.11 1.04 1.03 0.98 0.93 0.93 0.94 0.95 0.91 0.94 0.97 0.92 0.93 0.90 0.82 0.77 0.79 0.81 0.64 0.55 0.59 0.64 0.82 0.96 0.95 0.94 0.90 0.92 0.96 1.03 1.12 1.19 1.24 1.31 1.49 1.71 1.92
1.01 0.94 0.95 0.99 1.09 1.26 1.29 1.22 1.23 1.12 0.99 0.93 0.88 0.87 0.90 1.00 1.01 1.00 1.02 0.92 0.86 0.88 0.90 0.95 0.81 0.68 0.70 0.73 0.90 1.12 1.20 1.14 1.09 0.98 1.01 1.05 1.16 1.26 1.26 1.24 1.27 1.34 1.49
0.99 0.91 0.89 0.92 1.01 1.37 1.75 1.73 1.65 1.40 1.11 0.94 0.85 0.84 0.90 1.03 1.08 1.22 1.31 1.18 1.15 1.24 1.21 1.22 1.13 1.02 0.96 0.99 1.08 1.12 1.27 1.29 1.28 1.15 1.06 1.00 1.04 1.06 1.12 1.18 1.22 1.23 1.30
1.04 0.95 0.90 0.89 0.92 1.19 1.81 1.95 1.65 1.25 1.07 0.96 0.89 0.84 0.84 0.96 0.99 1.09 1.24 1.31 1.37 1.49 1.54 1.54 1.48 1.36 1.13 1.04 1.09 1.23 1.31 1.48 1.53 1.25 1.18 1.12 1.08 1.15 1.11 1.10 1.24 1.24 1.27
1.10 1.10 0.98 0.89 0.86 1.01 1.60 1.74 1.46 1.12 0.97 0.92 0.87 0.85 0.85 0.90 0.96 0.95 1.04 1.07 1.09 1.24 1.46 1.58 1.64 1.31 1.13 1.08 1.29 1.49 1.46 1.53 1.49 1.39 1.49 1.44 1.17 1.18 1.12 1.22 1.38 1.29 1.25
1.00 1.08 1.05 0.96 0.88 0.94 1.43 1.59 1.35 1.08 0.97 0.89 0.83 0.83 0.82 0.84 0.94 1.13 1.11 1.05 0.94 0.96 1.17 1.37 1.61 1.45 1.30 1.34 1.65 1.97 2.06 1.94 1.56 1.36 1.51 1.69 1.29 1.18 1.20 1.29 1.43 1.34 1.22
0.91 0.95 0.97 0.96 0.92 0.90 1.21 1.46 1.31 1.04 0.98 0.91 0.82 0.82 0.83 0.81 1.02 1.28 1.23 1.08 0.90 0.82 0.93 1.25 1.55 1.68 1.71 1.83 2.06 2.38 2.55 2.38 1.94 1.43 1.40 1.64 1.49 1.32 1.42 1.57 1.62 1.49 1.24
0.87 0.88 0.90 0.91 0.86 0.80 1.02 1.28 1.29 1.04 0.96 0.92 0.87 0.83 0.93 1.02 1.17 1.30 1.18 1.14 1.21 1.00 0.88 0.93 1.01 1.14 1.24 1.39 1.75 2.04 2.33 2.41 2.09 1.88 1.54 1.62 1.73 1.72 1.94 1.81 1.68 1.45 1.24